Regional Weather Roundup
Issued by NWS

Home | Current Version | Previous Version | Graphics & Text | Print | Product List | Glossary On
Versions: 1 2 3 4 5 6 7 8 9 10 11 12 13 14 15 16 17 18 19 20 21 22 23 24 25 26 27 28 29 30 31 32 33 34 35 36 37 38 39 40 41 42 43 44 45 46 47 48 49 50
000
ASUS45 KCYS 010310
RWRWY

WYOMING REGIONAL WEATHER ROUNDUP
NATIONAL WEATHER SERVICE CHEYENNE WY
900 PM MDT THU JUL 31 2014

NOTE:  "FAIR" INDICATES FEW OR NO CLOUDS BELOW 12,000 FEET
WITH NO SIGNIFICANT WEATHER AND/OR OBSTRUCTIONS TO VISIBILITY.

WYZ001-010400-
YELLOWSTONE NATIONAL PARK

CITY           SKY/WX    TMP DP  RH WIND       PRES   REMARKS
LK YELLOWSTONE   N/A     57  42  57 VRB6      30.46R
W YELLOWSTONE  NOT AVBL

$$
WYZ002>013-054>058-071-098>099-010400-
NORTHERN WYOMING

CITY           SKY/WX    TMP DP  RH WIND       PRES   REMARKS
JACKSON        MOCLDY    66  39  37 N9        30.29
CODY           MOCLDY    72  41  33 NW6       30.19S
GREYBULL       PTCLDY    78  43  28 VRB3      30.08R
WORLAND        PTCLDY    71  43  36 CALM      30.09R
SHERIDAN       PTCLDY    73  44  35 SE5       30.09S
BUFFALO        PTCLDY    68  40  35 W8        30.19R
GILLETTE       CLEAR     64  47  53 S7        30.12S
HULETT         FAIR      70  45  40 MISG      30.16
NEWCASTLE      FAIR      70  41  35 MISG      30.16

$$
WYZ014>020-022>026-101>103-010400-
CENTRAL WYOMING

CITY           SKY/WX    TMP DP  RH WIND       PRES   REMARKS
BIG PINEY      MOCLDY    62  45  53 N10       30.32R
PINEDALE       MOCLDY    61  43  51 MISG      30.33R
DUBOIS         FAIR      61  37  41 SW10      30.34S
LANDER         MOCLDY    70  34  26 W8        30.20R
RIVERTON       MOCLDY    71  29  21 N7        30.20S
CASPER         MOCLDY    73  29  19 E8        30.19S
DOUGLAS        PTCLDY    66  42  41 S6        30.20R

$$
WYZ021-027>030-104>119-010400-
SOUTHERN WYOMING

CITY           SKY/WX    TMP DP  RH WIND       PRES   REMARKS
EVANSTON       PTCLDY    69  36  29 NE5       30.31R
KEMMERER       PTCLDY   N/A N/A N/A CALM      30.34R
FORT BRIDGER   FAIR      68  45  42 N3        30.33R
ROCK SPRINGS   CLEAR     69  24  18 E7        30.28R
DIXON          FAIR      69  42  37 NE10      30.26R
RAWLINS        PTCLDY    65  39  38 E7        30.29R
SARATOGA       MOCLDY    64  43  45 SE7       30.31R
LARAMIE        PTCLDY    58  47  66 SE8       30.35R
CHEYENNE       PTCLDY    65  51  60 SW7       30.30R
TORRINGTON     CLEAR     72  46  39 SE8       30.16R
PINE BLUFFS    MOCLDY    68  50  52 CALM      30.25R

$$



USA.gov is the U.S. government's official web portal to all federal, state and local government web resources and services.